Weather in Sofiysk

Russia / Khabarovsk Krai     51°34′15″N   139°50′51″E
temp.,
°C
wind,
m/s
gust,
m/s
humid.,
%
clouds,
%
prec.,
mm/h
press.,
hPa
HPBL,
m
27 february, sat
sat2701:00−18wsw229699 0.0 102921
04:00−19wsw229296 0.0 102929
07:00−20sw23906 0.0 103032
10:00−16wsw35853 0.0 1029233
13:00−12wsw378419 0.0 1027509
16:00−10w368034 0.0 1025524
19:00−15s1192100 0.0 102421
22:00−13se2291100 0.0 102127
28 february, sun
sun2801:00−12se2287100 0.0 101769
04:00−12ese2295100 0.4 101241
07:00−13w1192100 0.0 101120
10:00−10wsw31287100 0.0 1010798
13:00−7w698398 0.0 1011898
16:00−6nw588299 0.2 10111192
19:00−12w2290100 0.1 101434
22:00−15n2396100 0.9 1016116
1 march, mon
mon101:00−18nw1197100 0.4 101837
04:00−20wsw1210099 0.4 102020
07:00−20wsw229791 0.1 102123
10:00−18wsw359395 0.3 1023424
13:00−16wsw6880100 0.1 1023847
16:00−16wsw7107684 0.1 10231071
19:00−20sw3392100 0.0 102450
22:00−22wsw388583 0.0 1025233
2 march, tue
tue201:00−23sw348067 0.0 102579
04:00−25sw228065 0.0 102732
07:00−26sw228192 0.0 102824
10:00−22wsw3107547 0.0 1028795
13:00−19wsw58720 0.0 10281021
16:00−18w597232 0.0 10271272
19:00−22w248498 0.0 102877
22:00−25sw229250 0.0 102920
3 march, wed
wed301:00−26sw22920 0.0 102820
04:00−27sw22910 0.0 102720
07:00−27sw12900 0.0 102720
10:00−21wsw210860 0.0 1025426
13:00−16wsw410750 0.0 1022660
16:00−14wsw26790 0.0 1019631
19:00−18sse128930 0.0 101820
22:00−19se228443 0.0 101632